New Bedford, MA

6:34 AM EDT on July 21, 2017 (GMT -0400)
New Bedford Regional

Weather History for KEWB - November, 2012

Change the Weather History Date:

Thursday, November 29, 2012

  Actual Average Record
Temperature  
Mean Temperature 35 °F -  
Max Temperature 42 °F 49 °F 66 °F (2011)
Min Temperature 28 °F 36 °F 17 °F (1989)
Degree Days  
Heating Degree Days 30    
Moisture  
Dew Point 24 °F    
Average Humidity 61    
Maximum Humidity 75    
Minimum Humidity 43    
Precipitation  
Precipitation 0.00 in - - ()
Sea Level Pressure  
Sea Level Pressure 30.23 in    
Wind  
Wind Speed 8 mph (West)    
Max Wind Speed 17 mph    
Max Gust Speed 25 mph    
Visibility 10 miles    
Events      
Averages and records for this station are not official NWS values.
T = Trace of Precipitation, MM = Missing Value Source: NWS Daily Summary

Daily Weather History Graph

Daily Weather History Graph

Search for Another Location

Airport or City:

Trip Planner

Search our weather history database for the weather conditions in past years. The results will help you decide how hot, cold, wet, or windy it might be!

Date:

Astronomy

Nov. 29, 2012 Rise Set
Actual Time 6:49 AM EST 4:14 PM EST
Civil Twilight 6:18 AM EST 4:45 PM EST
Nautical Twilight 5:44 AM EST 5:20 PM EST
Astronomical Twilight 5:10 AM EST 5:53 PM EST
Moon 5:14 PM EST (11/29) 7:34 AM EST (11/29)
Length of Visible Light 10h 26m
Length of Day
9h 25m
Full, 99% of the Moon is Illuminated
Nov 29
Full
Dec 6
Last Quarter
Dec 13
New
Dec 20
First Quarter
Dec 28
Full

Hourly Weather History & Observations

Time (EST) Temp. Windchill Dew Point Humidity Pressure Visibility Wind Dir Wind Speed Gust Speed Precip Events Conditions
12:53 AM 30.0 °F 23.2 °F 23.0 °F 75% 30.17 in 10.0 mi West 6.9 mph - N/A   Clear
1:53 AM 30.0 °F 24.1 °F 23.0 °F 75% 30.19 in 10.0 mi West 5.8 mph - N/A   Clear
2:53 AM 28.9 °F 22.8 °F 21.9 °F 75% 30.21 in 10.0 mi West 5.8 mph - N/A   Clear
3:53 AM 30.0 °F 23.2 °F 23.0 °F 75% 30.20 in 10.0 mi West 6.9 mph - N/A   Clear
4:53 AM 30.9 °F 22.8 °F 23.0 °F 72% 30.22 in 10.0 mi WNW 9.2 mph - N/A   Clear
5:53 AM 30.0 °F 22.4 °F 23.0 °F 75% 30.22 in 10.0 mi West 8.1 mph - N/A   Clear
6:53 AM 30.0 °F 23.2 °F 23.0 °F 75% 30.23 in 10.0 mi WNW 6.9 mph - N/A   Clear
7:53 AM 32.0 °F 26.4 °F 25.0 °F 75% 30.26 in 10.0 mi WNW 5.8 mph - N/A   Clear
8:53 AM 36.0 °F 30.3 °F 26.1 °F 67% 30.28 in 10.0 mi West 6.9 mph - N/A   Clear
9:53 AM 39.0 °F 34.0 °F 26.1 °F 60% 30.29 in 10.0 mi West 6.9 mph - N/A   Clear
10:53 AM 39.9 °F 33.4 °F 26.1 °F 58% 30.27 in 10.0 mi West 10.4 mph - N/A   Clear
11:53 AM 41.0 °F 33.9 °F 23.0 °F 49% 30.25 in 10.0 mi West 12.7 mph - N/A   Clear
12:53 PM 42.1 °F 35.7 °F 24.1 °F 49% 30.22 in 10.0 mi WSW 11.5 mph 17.3 mph N/A   Clear
1:53 PM 41.0 °F 32.5 °F 21.9 °F 47% 30.21 in 10.0 mi WSW 17.3 mph 25.3 mph N/A   Clear
2:53 PM 42.1 °F 35.7 °F 21.9 °F 45% 30.20 in 10.0 mi WSW 11.5 mph - N/A   Clear
3:53 PM 41.0 °F 34.3 °F 19.9 °F 43% 30.20 in 10.0 mi WSW 11.5 mph 16.1 mph N/A   Clear
4:53 PM 37.9 °F 33.5 °F 19.9 °F 48% 30.21 in 10.0 mi WSW 5.8 mph - N/A   Clear
5:53 PM 37.9 °F 32.1 °F 25.0 °F 60% 30.22 in 10.0 mi WSW 8.1 mph - N/A   Clear
6:53 PM 37.9 °F 31.5 °F 26.1 °F 62% 30.22 in 10.0 mi WSW 9.2 mph - N/A   Clear
7:53 PM 39.9 °F 32.5 °F 25.0 °F 55% 30.23 in 10.0 mi West 12.7 mph 19.6 mph N/A   Clear
8:53 PM 41.0 °F 33.5 °F 24.1 °F 51% 30.23 in 10.0 mi WSW 13.8 mph - N/A   Clear
9:53 PM 39.9 °F 33.4 °F 24.1 °F 53% 30.24 in 10.0 mi WSW 10.4 mph - N/A   Clear
10:53 PM 39.0 °F 33.4 °F 25.0 °F 57% 30.24 in 10.0 mi WSW 8.1 mph - N/A   Clear
11:53 PM 39.0 °F 32.8 °F 25.0 °F 57% 30.25 in 10.0 mi WSW 9.2 mph 19.6 mph N/A   Clear